OBJECT E, 67750

Orbit data source: Space-Track

You're viewing an Uncataloged Satellite

Recently launched and/or uncataloged satellites may have evolving metadata. Metadata may include but not limited to: Owner, Maufacturer, Bus, Motor, and Mission.

OBJECT E, 67750 is a Chinese satellite in SSO that was launched on Thu, 12 Feb 2026 UTC via a JIELONG-3 launch vehicle from the South China Sea Launch Area (SCSLA). Unknown objects in Earth's orbit typically refer to objects detected orbiting the Earth but have not yet been identified or cataloged. These objects could be anything from previously untracked satellites, spent rocket stages, debris from satellite collisions, or even natural meteoroids temporarily captured by Earth's gravity.

Loading next visibility...
Identifier
67750, 2026-027E
Orbit
SSO
Country
Flag of CNCN / PRC
Related business
None
Manufacturer
Unknown
Mission
Operational spacecraft
Bus & Motor
Unknown
Mass
Unknown
Launch date (UTC)
2026-02-12 (1 month ago)
Launch vehicle
JIELONG-3
Launch site
South China Sea Launch Area (SCSLA)
Object type
Unknown
Shape & HBR
Unknown
Radar Cross Section
RCS unknown

Expand to show TLE details & history
Last TLE update: 8 hours ago

TLE from 8 hours ago
0 OBJECT E
1 67750U 26027E   26071.99223228  .00009219  00000-0  45354-3 0  9990
2 67750  97.4913 200.9932 0009745 193.3010 166.7968 15.18187904  4367
Epoch: 2026-03-12T23:48Z
TLE epoch observation values (Epoch: 2026-03-12T23:48:48.868Z)
Latitude
-0.0001°
Longitude
33.15543°
Altitude
520.941 km
Speed
7.599 km/s
True Right ascension
13h 23m 58s
True Declination
0° 00' 00"
Sunlit
Object was in full shadow at epoch
Visualization orbit readout
Latitude
Unknown
Longitude
Unknown
Altitude
Unknown
Speed
Unknown
Apparent Right ascension
Unknown
Apparent Declination
Unknown
Sunlit
N/A
Visualization observer readout
Local Sidereal Time
12:22:45
Azimuth
Unknown
Elevation
Unknown
Doppler factor
Unknown
Orbital elements
Apogee altitude
515 km
Perigee altitude
501.578 km
Semi-major axis
6,886.426 km
Eccentricity
0.00097
Inclination
97.4913°
RAAN
200.9932°
Arg. of periapsis
193.301°
True anomaly
166.82228°
Mean anomaly
166.7968°
Eccentric anomaly
166.80954°
Mean motion
3.79798 °/min
Orbital period
94.79 mins
BSTAR
0.00045354
Loading maneuver chart data...
Computing Atmospheric mass density...
Loading historical data...
Loading historical data...
Loading historical data...
Loading historical data...
Loading historical data...
Loading historical data...
Loading historical data...

Documentation

Showing up to 5 results
|